Terminal Aerodrome Forecast
Issued by NWS

Home | Current Version | Previous Version | Graphics & Text | Print | Product List | Glossary On
Versions: 1 2 3 4 5 6 7 8 9 10 11 12 13 14 15 16 17 18 19 20 21 22 23
000
FTUS43 KGRB 242200 AAC
TAFATW
TAF AMD
KATW 242227Z 2422/2518 18007KT P6SM BKN070
     FM250000 20006KT P6SM SCT025 BKN050
      TEMPO 2502/2506 4SM BR BKN025
     FM250700 25005KT 4SM BR SCT012
     FM251300 29013KT P6SM SCT025=

USA.gov is the U.S. government's official web portal to all federal, state and local government web resources and services.